Location: Lann-Kergreiz
(47.7525°N, 3.3348°W)
Time: 20:15:48
(UTC+00:00)

Daily predictions for brighter satellites

Satellite Brightness Start Highest point End
(mag) Time Altitude Azimuth Time Altitude Azimuth Time Altitude Azimuth
Cosmos 292 Rocket 4.3 19:14:00 10° NNW 19:18:47 65° WSW 19:23:32 10° S
Cosmos 2369 Rocket 2.6 19:14:39 10° NNW 19:20:21 72° WSW 19:25:57 10° SSE
NOSS 3-3 (A) 4.0 19:15:30 10° SW 19:21:24 82° SE 19:28:05 10° NE
NOSS 3-3 (C) 4.0 19:15:37 10° SSW 19:21:29 81° SE 19:28:11 10° NE
STARLINK-1201 4.2 19:18:36 10° WNW 19:21:38 35° N 19:24:41 10° ENE
MOS 1 4.5 19:17:32 10° SE 19:23:02 57° ENE 19:28:35 10° N
Cosmos 1340 Rocket 4.4 19:20:37 10° SE 19:23:19 17° E 19:26:01 10° NE
STARLINK-67 3.1 19:21:59 10° NW 19:24:28 42° NNE 19:26:57 10° E
Cosmos 1703 4.0 19:21:32 10° N 19:25:13 36° ENE 19:28:54 10° SE
Cosmos 1328 4.5 19:22:09 10° N 19:25:53 35° ENE 19:29:33 10° SE
H-2A R/B 2.1 19:21:33 10° SSE 19:26:42 66° ENE 19:31:44 10° N
CZ-2C R/B 2.9 19:24:40 10° SSE 19:29:27 62° ENE 19:34:10 10° N
Cosmos 1437 2.5 19:28:16 10° N 19:31:19 71° ENE 19:34:18 10° SSE
Cosmos 2251 Rocket 3.9 19:30:33 10° SSW 19:35:55 74° WNW 19:41:20 10° NNE
Cosmos 1908 3.8 19:33:21 10° SSE 19:36:52 35° E 19:40:26 10° NNE
SL-08 RB Rocket 4.0 19:33:06 10° SE 19:37:29 49° ENE 19:41:57 10° N
CZ-4 R/B 4.2 19:35:17 10° SW 19:38:04 19° W 19:40:53 10° NW
MONITOR-E 3.7 19:37:23 10° SSE 19:40:00 66° ENE 19:42:37 10° N
Resurs 1-3 4.4 19:37:41 10° SE 19:41:37 33° ENE 19:45:34 10° N
USA 234 4.4 19:39:04 10° E 19:43:34 19° ESE 19:48:03 10° SSE
ATLAS 2AS CENTAUR R/B 2.9 19:36:34 10° NW 19:44:17 79° NE 19:51:20 10° SE
STARLINK-1228 3.3 19:41:46 10° WNW 19:44:36 46° NNE 19:46:55 14° E
SeaSat 1 3.0 19:39:57 10° NNE 19:44:50 63° WNW 19:49:41 10° SW
Cosmos 1943 3.2 19:40:46 10° SSW 19:46:25 89° ESE 19:52:10 10° NNE
Ariane Rocket 3.3 19:42:34 10° S 19:47:38 73° WSW 19:52:42 10° NNW
Cosmos 1953 2.9 19:44:24 10° SSW 19:48:20 62° WNW 19:52:19 10° N
CZ-4C R/B 4.4 19:43:45 10° NW 19:48:41 22° NNE 19:54:14 10° ENE
Cosmos 1140 Rocket 4.1 19:46:47 10° SSE 19:51:25 34° ESE 19:56:03 10° NE
Cosmos 1726 2.3 19:48:10 10° SSW 19:51:54 77° W 19:55:39 10° N
Cosmos 1656 Rocket 3.8 19:48:21 10° NNW 19:54:02 79° WSW 19:59:36 10° SSE
Cosmos 1190 Rocket 4.3 19:52:46 10° S 19:57:46 45° ESE 20:02:48 10° NNE
Meteor 1-11 4.3 19:52:39 10° N 19:58:24 66° ENE 20:04:03 10° SSE
Cosmos 2058 Rocket 3.5 19:54:31 10° SSE 19:58:46 42° E 20:03:02 10° NNE
Cosmos 2184 Rocket 4.2 19:53:27 10° N 19:59:46 80° W 20:05:58 10° S
COSMOS 2455 3.2 19:54:37 10° NNW 20:00:32 53° NE 20:05:11 17° ESE
Meteor 2-10 4.4 19:55:08 10° SSW 20:00:36 76° WNW 20:06:19 10° N
DMSP B5D2-2 4.4 19:55:59 10° NNE 20:00:56 42° E 20:05:52 10° SSE
FREGAT/IRIS 3.4 19:58:43 10° S 20:01:21 45° W 20:03:59 10° NNW
CZ-2C R/B 3.1 19:56:47 10° NNE 20:01:34 36° E 20:06:19 10° SSE
MetOp-A 4.2 19:56:19 10° SSE 20:01:35 64° ENE 20:06:54 10° N
Cosmos 614 Rocket 3.9 19:58:29 10° S 20:03:40 70° ESE 20:08:52 10° NNE
STARLINK-1192 4.5 20:00:42 10° WNW 20:04:40 44° N 20:07:54 15° E
Cosmos 1726 Rocket 3.5 20:02:15 10° S 20:06:39 78° E 20:11:07 10° NNE
ARGOS 3.5 20:02:37 10° S 20:08:00 69° WSW 20:13:22 10° NNW
STARLINK-1244 4.4 20:05:40 10° WNW 20:09:40 45° NNE 20:12:41 16° E
USA 186 3.1 20:07:07 10° S 20:10:16 40° W 20:13:19 10° NNW
ERBS 3.9 20:07:27 10° NW 20:10:21 26° NNE 20:12:22 15° ENE
Resurs 01 Rocket 2.0 20:08:29 18° SE 20:11:31 46° ENE 20:15:46 10° N
SL-24 R/B 3.7 20:08:40 10° NNE 20:12:46 67° E 20:16:29 10° S
Cosmos 1825 Rocket 4.4 20:08:50 10° NNW 20:13:07 52° W 20:17:19 10° S
BREEZE-M DEB (TANK) 1.8 20:09:06 10° WSW 20:13:50 83° NNW 20:15:11 23° ENE
ATLAS CENTAUR R/B 3.8 20:13:09 10° N 20:13:59 11° NNE 20:14:49 10° NNE
STARLINK-1138 4.4 20:10:40 10° WNW 20:14:41 46° NNE 20:17:28 18° E
APEX 4.4 20:11:33 10° NNW 20:18:09 77° WSW 20:22:48 14° SSE
Meteor 2-17 Rocket 4.5 20:11:58 10° N 20:18:10 89° WSW 20:24:19 10° S
STARLINK-1234 2.8 20:15:25 10° WNW 20:18:29 74° NNE 20:19:38 34° ESE
STARLINK-1233 3.1 20:15:32 10° WNW 20:18:39 60° NNE 20:19:56 31° E
STARLINK-1212 3.1 20:16:00 10° WNW 20:19:07 60° NNE 20:20:22 31° E
Cosmos 921 Rocket 2.9 20:15:04 10° NNW 20:19:14 65° ENE 20:21:45 23° SE
STARLINK-1105 3.1 20:16:26 10° WNW 20:19:34 61° NNE 20:20:48 32° E
STARLINK-1209 2.7 20:16:33 10° WNW 20:19:35 78° NNE 20:20:40 36° ESE
STARLINK-1143 4.3 20:15:38 10° WNW 20:19:40 47° NNE 20:22:14 20° E
STARLINK-1206 3.1 20:16:56 10° WNW 20:20:01 61° NNE 20:21:13 32° E
STARLINK-1247 3.1 20:17:22 10° WNW 20:20:28 61° NNE 20:21:39 33° E
Nadezhda 1 Rocket 4.1 20:14:26 10° S 20:20:51 90° NW 20:27:14 10° N
STARLINK-1227 3.1 20:17:47 10° WNW 20:20:55 62° NNE 20:22:06 33° E
STARLINK-1218 3.1 20:18:16 10° WNW 20:21:23 62° NNE 20:22:31 34° E
STARLINK-1226 3.1 20:18:43 10° WNW 20:21:50 63° NNE 20:22:58 34° E
Cosmos 962 Rocket 4.5 20:15:58 10° N 20:22:06 64° ENE 20:27:13 15° SSE
STARLINK-1254 3.1 20:19:08 10° WNW 20:22:16 63° NNE 20:23:24 34° E
Cosmos 2154 Rocket 4.1 20:16:02 10° N 20:22:25 83° W 20:28:44 10° S
STARLINK-1215 3.0 20:19:38 10° WNW 20:22:44 63° NNE 20:23:49 35° E
STARLINK-1231 3.0 20:20:04 10° WNW 20:23:11 64° NNE 20:24:15 36° E
STARLINK-1232 3.0 20:20:59 10° WNW 20:24:05 65° NNE 20:25:08 37° E
STARLINK-1217 3.0 20:21:25 10° WNW 20:24:32 65° NNE 20:25:34 37° E
STARLINK-1241 4.2 20:20:40 10° WNW 20:24:42 49° NNE 20:27:03 22° E
STARLINK-1208 3.0 20:21:50 10° WNW 20:24:58 66° NNE 20:26:00 37° E
Cosmos 2228 3.7 20:20:57 10° SSW 20:25:12 58° WNW 20:29:30 10° N
SL-8 Rocket 4.3 20:19:13 10° N 20:25:19 47° ENE 20:29:12 22° SE
Cosmos 407 Rocket 3.4 20:20:11 10° SSW 20:25:21 87° ESE 20:30:30 10° NNE
BREEZE-M DEB (TANK) 3.5 20:19:40 10° WNW 20:25:23 62° SSW 20:26:31 33° SE
STARLINK-1229 3.0 20:22:19 10° WNW 20:25:26 66° NNE 20:26:25 38° E
Cosmos 2181 Rocket 4.4 20:20:34 14° SSE 20:25:26 41° E 20:31:09 10° NNE
STARLINK-1271 3.0 20:22:46 10° WNW 20:25:53 66° NNE 20:26:52 39° E
SL-24 R/B - RUBIN 2 4.2 20:20:22 10° SSW 20:25:57 77° SE 20:32:18 10° NE
STARLINK-1270 3.0 20:23:14 10° WNW 20:26:21 67° NNE 20:27:18 39° E
Cosmos 676 Rocket 4.2 20:21:29 10° S 20:26:31 48° ESE 20:31:34 10° NNE
STARLINK-1154 3.0 20:23:40 10° WNW 20:26:48 67° NNE 20:27:43 40° E
STARLINK-1197 2.9 20:24:35 10° WNW 20:27:42 68° NNE 20:28:36 41° E
STARLINK-1189 2.9 20:25:01 10° WNW 20:28:09 68° NNE 20:29:01 42° E
STARLINK-1198 2.9 20:25:29 10° WNW 20:28:36 69° NNE 20:29:27 43° E
ERS-1 Rocket 4.4 20:27:20 19° E 20:28:52 22° ENE 20:32:43 10° N
STARLINK-1188 2.9 20:25:56 10° WNW 20:29:03 69° NNE 20:29:53 43° E
Cosmos 1461 3.2 20:24:43 10° NW 20:29:15 74° SW 20:32:00 24° SSE
Cosmos 1980 Rocket 4.3 20:26:34 10° N 20:29:17 13° NNE 20:31:58 10° ENE
STARLINK-1239 4.2 20:25:36 10° WNW 20:29:40 51° NNE 20:31:48 25° E
STARLINK-1235 2.8 20:26:34 10° WNW 20:29:44 84° NNE 20:30:32 46° ESE
SPOT 3 Rocket 3.8 20:24:57 10° S 20:30:09 72° WSW 20:35:23 10° NNW
STARLINK-1187 2.8 20:27:00 10° WNW 20:30:10 78° NNE 20:30:59 46° ESE
STARLINK-1199 2.9 20:27:51 10° WNW 20:31:00 72° NNE 20:31:48 45° E
STARLINK-29 3.1 20:27:57 10° SW 20:31:03 48° SE 20:31:20 46° SE
STARLINK-1191 2.9 20:28:19 10° WNW 20:31:28 72° NNE 20:32:15 46° E
Cosmos 1892 4.1 20:28:44 10° NNE 20:31:53 23° ENE 20:32:00 22° ENE
STARLINK-1210 2.9 20:28:46 10° WNW 20:31:55 73° NNE 20:32:40 47° E
SJ-6B 4.3 20:28:03 10° SSW 20:31:55 39° W 20:35:50 10° NNW
STARLINK-1221 2.9 20:29:14 10° WNW 20:32:22 73° NNE 20:33:07 48° E
STARLINK-1219 2.9 20:29:39 10° WNW 20:32:49 74° NNE 20:33:32 48° E
STARLINK-60 2.9 20:29:58 10° WSW 20:33:15 85° NNW 20:34:54 27° ENE
STARLINK-1222 2.9 20:30:07 10° WNW 20:33:16 74° NNE 20:33:58 49° E
STARLINK-1211 2.9 20:30:35 10° WNW 20:33:43 75° NNE 20:34:24 50° E
STARLINK-1214 2.9 20:31:01 10° WNW 20:34:10 75° NNE 20:34:50 51° E
STARLINK-1245 2.8 20:31:31 10° WNW 20:34:38 76° NNE 20:35:16 52° E
STARLINK-1240 4.1 20:30:37 10° WNW 20:34:41 52° NNE 20:36:36 28° E
SPOT 5 4.3 20:34:13 17° ENE 20:34:48 17° ENE 20:37:38 10° NNE
STARLINK-1238 2.9 20:31:55 10° WNW 20:35:04 76° NNE 20:35:43 52° E
STARLINK-1205 2.8 20:32:52 10° WNW 20:36:00 77° NNE 20:36:34 55° E
Aureole 1 Rocket 4.2 20:28:55 10° SSW 20:36:26 79° WNW 20:42:15 10° NNE
STARLINK-1204 2.8 20:33:18 10° WNW 20:36:26 78° NNE 20:36:59 56° E
Cosmos 2366 rocket 4.3 20:32:17 10° N 20:38:12 46° ENE 20:41:06 28° SE
STARLINK-1216 4.1 20:35:36 10° WNW 20:39:41 55° NNE 20:41:24 31° E
Cosmos 1825 4.5 20:40:02 10° NE 20:41:04 12° NE 20:41:04 12° NE
ATLAS 5 CENTAUR R/B 1.4 20:37:59 10° SW 20:42:09 88° SE 20:46:54 10° NE
Abrixas rocket 1.9 20:40:07 10° W 20:43:03 66° SSW 20:43:05 66° SSW
Terra 3.5 20:42:27 17° ENE 20:43:10 18° ENE 20:46:19 10° NNE
STARLINK-1237 4.0 20:40:34 10° WNW 20:44:40 57° NNE 20:46:09 35° E
Cosmos 1954 Rocket 3.9 20:44:20 10° SSW 20:49:32 71° ESE 20:54:45 10° NNE
STARLINK-1202 3.9 20:45:34 10° WNW 20:49:40 59° NNE 20:50:57 39° E
Cosmos 2058 3.2 20:46:26 10° N 20:50:24 44° ENE 20:50:47 43° E
RESURS DK-1 3.9 20:49:24 10° N 20:52:44 23° NE 20:53:17 22° ENE
FALCON 9 DEB 3.1 20:50:24 10° SW 20:53:39 65° S 20:53:39 65° S
Cosmos 1300 2.6 20:52:16 31° S 20:54:00 90° E 20:57:51 10° N
SPOT 1/Viking Rocket 4.0 20:52:37 35° ESE 20:54:06 44° ENE 20:59:03 10° N
SL-4 R/B 2.1 20:53:53 10° W 20:57:14 54° NNW 20:58:16 37° NE
STARLINK-1201 3.0 20:54:51 10° WNW 20:58:00 77° WSW 20:58:00 77° WSW
STARLINK-67 4.5 20:56:03 10° W 20:57:33 23° WSW 20:57:33 23° WSW
Cosmos 1076 Rocket 3.5 20:54:16 10° N 20:58:30 57° ENE 20:59:02 52° ESE
Cosmos 1340 Rocket 4.0 20:55:34 10° SSW 20:59:26 43° WNW 21:03:19 10° N
STARLINK-1246 3.8 20:55:32 10° WNW 20:59:40 65° NNE 21:00:32 50° ENE
In-Cosmos 22 Rocket 4.2 20:54:07 10° N 20:59:58 71° ENE 21:02:23 36° SSE
STARLINK-1203 3.7 20:56:23 10° WNW 21:00:35 70° NNE 21:01:25 53° E
MOS 1 Rocket 4.0 20:56:10 10° N 21:01:32 68° WNW 21:06:55 10° SSW
STARLINK-1224 3.7 21:00:30 10° WNW 21:04:39 69° NNE 21:05:18 57° ENE
Cosmos 1763 Rocket 3.7 21:04:26 10° NNW 21:09:34 54° ENE 21:10:29 47° E
STARLINK-1225 3.6 21:05:30 10° WNW 21:09:39 73° NNE 21:10:06 65° ENE
SAR-Lupe-2 3.5 21:07:24 10° NNE 21:10:59 82° WNW 21:11:07 80° WSW
STARLINK-1230 3.5 21:10:29 10° WNW 21:14:39 77° NNE 21:14:53 73° ENE
BREEZE M DEB (TANK) 3.2 21:12:04 10° SW 21:15:39 65° SSE 21:26:47 10° ENE
MetOp-B 4.2 21:14:22 36° S 21:16:37 74° WSW 21:22:00 10° NNW
Cosmos 540 Rocket 4.3 21:14:08 10° N 21:18:52 34° ENE 21:19:20 34° ENE
STARLINK-1243 3.5 21:15:27 10° WNW 21:19:36 81° NNE 21:19:39 81° NE
Cosmos 1174 4.0 21:15:39 10° NNW 21:19:47 81° ENE 21:20:15 70° ESE
Cosmos-2242 4.4 21:21:21 27° NE 21:21:21 27° NE 21:23:47 10° NNE
COSMOS 2406 3.8 21:20:59 38° E 21:20:59 38° E 21:25:17 10° NE
Meteor 2-10 Rocket 4.1 21:23:20 40° ENE 21:23:20 40° ENE 21:27:46 10° NNE
SL-08 R/B 4.4 21:17:22 10° N 21:23:31 68° E 21:25:05 50° SE
STARLINK-1236 3.6 21:20:25 10° WNW 21:24:26 81° NNW 21:24:26 81° NNW
Iridium 4 Rocket 2.8 21:20:29 10° N 21:24:43 89° W 21:24:45 88° SSW
USA 234 3.1 21:20:53 10° ENE 21:27:24 66° SE 21:33:54 10° SW
USA 32 4.0 21:25:50 10° N 21:31:02 62° E 21:31:15 61° E
ATLAS 2AS CENTAUR R/B 4.3 21:28:28 10° NW 21:34:29 27° WSW 21:38:49 15° SSW
STARLINK-1269 3.9 21:30:22 10° WNW 21:33:59 66° WNW 21:33:59 66° WNW
Cosmos 1408 3.9 21:34:20 10° N 21:36:38 36° N 21:36:38 36° N
Landsat 7 3.9 21:37:50 63° SW 21:38:22 70° WSW 21:43:09 10° NNW
Spot 2 Rocket 4.0 21:37:05 40° SSW 21:38:32 54° W 21:43:33 10° NNW
CZ-4C R/B 3.5 21:32:27 10° NW 21:39:00 44° NE 21:41:59 32° E
STARLINK-1200 4.1 21:35:21 10° WNW 21:38:46 58° WNW 21:38:46 58° WNW
Cosmos 2369 4.0 21:34:06 10° NNW 21:39:36 49° NE 21:40:06 48° ENE
Cosmos 1850 Rocket 3.8 21:39:34 78° ESE 21:39:38 78° ESE 21:44:50 10° NNE
Meteor 2-1 Rocket 4.3 21:38:43 41° SSW 21:40:54 84° W 21:46:54 10° N
CZ-2C R/B 4.1 21:37:11 10° N 21:41:49 34° WNW 21:46:28 10° SW
CARTOSAT-1 3.8 21:43:22 63° N 21:43:22 63° N 21:47:06 10° N
IGS 5A 3.9 21:43:20 59° W 21:43:20 59° W 21:47:16 10° NNW
STARLINK-1192 4.3 21:40:21 10° WNW 21:43:33 51° W 21:43:33 51° W
Cosmos 1356 Rocket 4.5 21:46:43 39° NNE 21:46:43 39° NNE 21:49:29 10° NNE
Cosmos 1697 Rocket 2.9 21:39:50 10° NNW 21:45:25 55° ENE 21:45:47 54° ENE
COSMOS 2455 4.1 21:40:57 10° NW 21:46:15 33° WSW 21:48:21 26° SSW
Cosmos 841 Rocket 3.6 21:41:40 10° NNW 21:46:53 62° ENE 21:46:53 62° ENE
ERBS 4.3 21:43:35 10° NW 21:45:20 28° WNW 21:45:20 28° WNW
Resurs 01 Rocket 3.8 21:46:03 15° SW 21:48:15 20° W 21:51:34 10° NW
Mayak 1.2 21:47:13 10° NE 21:47:46 13° NE 21:47:46 13° NE
Okean 3 Rocket 4.1 21:46:32 10° N 21:50:04 55° NNE 21:50:04 55° NNE
BREEZE M DEB (TANK) 3.8 21:48:09 10° W 21:52:40 44° W 21:52:40 44° W
ATLAS CENTAUR R/B 2.8 21:50:24 10° NNW 21:52:56 30° N 21:52:56 30° N
Cosmos 1766 Rocket 4.3 21:51:33 10° N 21:54:58 49° NNE 21:54:58 49° NNE
Cosmos 468 Rocket 4.4 21:52:51 10° NNW 21:57:53 52° WSW 21:58:10 51° WSW
Cosmos 1570 Rocket 4.0 21:57:08 10° NNW 22:02:21 81° WNW 22:02:21 81° WNW
SL-16 R/B 4.0 21:59:02 10° N 22:03:01 19° NE 22:04:14 18° ENE
Cosmos 1455 4.0 22:05:04 29° N 22:05:04 29° N 22:07:03 10° N
ERS-1 Rocket 3.3 22:07:19 58° W 22:07:19 58° W 22:12:16 10° NNW
Cosmos 1892 4.5 22:04:10 10° NNW 22:07:00 29° WNW 22:07:00 29° WNW
Cosmos 2322 Rocket 4.1 22:07:32 10° N 22:11:25 18° NE 22:12:34 17° NE
Meteor 2-3 Rocket 4.0 22:05:50 10° N 22:11:01 58° NE 22:11:01 58° NE
Cosmos 1656 3.9 22:06:46 10° NNW 22:12:23 60° WSW 22:12:23 60° WSW
SPOT 5 3.5 22:13:27 46° NW 22:13:27 46° NW 22:16:46 10° NNW
Cosmos 1980 Rocket 2.6 22:09:11 10° NNW 22:14:19 51° NE 22:14:19 51° NE
Cosmos 1825 4.1 22:13:55 10° NNW 22:15:53 28° NNW 22:15:53 28° NNW
Terra 2.4 22:21:20 54° NW 22:21:20 54° NW 22:25:10 10° NNW
ATLAS 5 CENTAUR R/B 4.1 22:23:59 10° WNW 22:27:30 22° NNW 22:31:25 10° NNE
RESURS DK-1 4.3 22:27:00 10° NW 22:29:11 28° NW 22:29:11 28° NW
Nadezhda 3 Rocket 4.1 22:35:02 64° WSW 22:35:33 67° WNW 22:41:50 10° N
Cosmos 2360 4.4 22:29:57 10° NNW 22:34:51 67° NNW 22:34:51 67° NNW
Cosmos 1535 Rocket 4.5 22:34:34 10° N 22:40:18 78° NNW 22:40:18 78° NNW
Cosmos 2278 4.0 22:36:11 10° NNW 22:40:53 63° NW 22:40:53 63° NW
Cosmos 2082 Rocket 3.3 22:45:47 35° NE 22:45:47 35° NE 22:49:00 10° NNE
Cosmos 1833 Rocket 3.3 22:55:21 54° N 22:55:21 54° N 22:59:54 10° NNE
Cosmos 2344 4.3 22:45:40 10° NW 22:55:08 83° NE 22:58:33 54° SE
COSMOS 2406 4.4 23:02:57 33° W 23:04:19 38° NW 23:09:39 10° NNE
Cosmos 1934 Rocket 4.5 23:03:38 10° NNW 23:09:09 52° WNW 23:09:09 52° WNW
USA 234 3.8 23:04:00 10° NE 23:10:21 55° NNW 23:16:42 10° W
Cosmos 1605 Rocket 4.5 23:18:15 10° NNW 23:23:16 55° NW 23:23:16 55° NW
Mayak 1.2 23:22:40 10° N 23:24:21 20° NNW 23:24:21 20° NNW
CZ-4C R/B 3.1 23:20:53 10° NW 23:27:10 61° W 23:27:10 61° W
Cosmos 1697 Rocket 4.4 23:24:22 10° NW 23:27:31 24° WNW 23:27:31 24° WNW
SL-16 R/B 3.2 23:42:20 10° NNW 23:46:05 43° NNW 23:46:05 43° NNW
Cosmos 2360 Rocket 3.4 23:46:06 10° NNW 23:50:15 37° NNE 23:50:15 37° NNE
